Defiance, OH

8:10 PM EST on November 22, 2019 (GMT -0500)
Defiance Memorial

Weather History for KDFI - September, 2019

Change the Weather History Date:

Monday, September 2, 2019

  Actual Average Record
Temperature  
Mean Temperature 72 °F -  
Max Temperature 80 °F 81 °F 99 °F (1953)
Min Temperature 63 °F 57 °F 39 °F (1946)
Cooling Degree Days 6    
Growing Degree Days 22 (Base 50)    
Moisture  
Dew Point 63 °F    
Average Humidity 81    
Maximum Humidity 97    
Minimum Humidity 54    
Precipitation  
Precipitation 0.00 in - - ()
Sea Level Pressure  
Sea Level Pressure 30.07 in    
Wind  
Wind Speed 3 mph (WNW)    
Max Wind Speed 9 mph    
Max Gust Speed -    
Visibility 7 miles    
Events      
Averages and records for this station are not official NWS values.
T = Trace of Precipitation, MM = Missing Value Source: NWS Daily Summary

Daily Weather History Graph

Daily Weather History Graph

Search for Another Location

Airport or City:

Astronomy

Sep. 02, 2019 Rise Set
Actual Time 7:04 AM EDT 8:09 PM EDT
Civil Twilight 6:36 AM EDT 8:37 PM EDT
Nautical Twilight 6:02 AM EDT 9:11 PM EDT
Astronomical Twilight 5:27 AM EDT 9:46 PM EDT
Moon 10:48 AM EDT (9/2) 10:27 PM EDT (9/2)
Length of Visible Light 14h 01m
Length of Day
13h 04m
Waxing Crescent, 15% of the Moon is Illuminated
Sep 2
Waxing Crescent
Sep 5
First Quarter
Sep 14
Full
Sep 21
Last Quarter
Sep 28
New

Hourly Weather History & Observations

Time (EDT) Temp. Heat Index Dew Point Humidity Pressure Visibility Wind Dir Wind Speed Gust Speed Precip Events Conditions
12:23 AM 66.0 °F - 63.0 °F 90% 30.06 in 7.0 mi SE 3.5 mph - N/A   Scattered Clouds
12:53 AM 64.0 °F - 62.1 °F 93% 30.06 in 3.0 mi SSW 3.5 mph - N/A   Clear
1:27 AM 64.0 °F - 62.1 °F 93% 30.07 in 2.0 mi Calm Calm - N/A   Clear
1:32 AM 63.0 °F - 61.0 °F 93% 30.07 in 1.2 mi Calm Calm - N/A   Partly Cloudy
1:35 AM 63.0 °F - 61.0 °F 93% 30.07 in 0.8 mi Calm Calm - N/A   Mist
1:51 AM 64.4 °F - 62.6 °F 94% 30.07 in 1.0 mi WNW 3.5 mph - N/A   Mostly Cloudy
1:53 AM 63.0 °F - 62.1 °F 97% 30.07 in 1.5 mi WNW 3.5 mph - N/A   Mostly Cloudy
1:56 AM 63.0 °F - 62.1 °F 97% 30.07 in 2.5 mi WNW 3.5 mph - N/A   Overcast
2:11 AM 64.0 °F - 62.1 °F 93% 30.07 in 4.0 mi Calm Calm - N/A   Overcast
2:53 AM 64.9 °F - 62.1 °F 90% 30.06 in 5.0 mi Calm Calm - N/A   Overcast
3:45 AM 64.9 °F - 63.0 °F 93% 30.06 in 5.0 mi Calm Calm - N/A   Overcast
3:53 AM 64.9 °F - 63.0 °F 93% 30.06 in 5.0 mi Calm Calm - N/A   Overcast
4:23 AM 64.9 °F - 63.0 °F 93% 30.06 in 5.0 mi Calm Calm - N/A   Overcast
4:53 AM 64.9 °F - 63.0 °F 93% 30.06 in 6.0 mi Calm Calm - N/A   Overcast
5:53 AM 66.0 °F - 63.0 °F 90% 30.07 in 6.0 mi Calm Calm - N/A   Overcast
6:53 AM 66.0 °F - 63.0 °F 90% 30.07 in 5.0 mi WNW 3.5 mph - N/A   Overcast
7:53 AM 66.0 °F - 63.0 °F 90% 30.08 in 3.0 mi NW 3.5 mph - N/A   Overcast
8:53 AM 68.0 °F - 63.0 °F 84% 30.09 in 10.0 mi NW 6.9 mph - N/A   Mostly Cloudy
9:53 AM 71.1 °F - 63.0 °F 75% 30.10 in 10.0 mi NW 6.9 mph - N/A   Scattered Clouds
10:53 AM 73.0 °F - 62.1 °F 68% 30.10 in 10.0 mi NW 5.8 mph - N/A   Clear
11:53 AM 75.0 °F - 62.1 °F 64% 30.11 in 10.0 mi NW 9.2 mph - N/A   Clear
12:53 PM 77.0 °F - 60.1 °F 56% 30.09 in 10.0 mi NNW 3.5 mph - N/A   Clear
1:53 PM 78.1 °F - 61.0 °F 56% 30.09 in 10.0 mi Variable 4.6 mph - N/A   Partly Cloudy
2:53 PM 79.0 °F - 62.1 °F 56% 30.08 in 10.0 mi Variable 5.8 mph - N/A   Scattered Clouds
3:53 PM 79.0 °F - 62.1 °F 56% 30.07 in 10.0 mi WNW 9.2 mph - N/A   Scattered Clouds
4:53 PM 80.1 °F 81.2 °F 62.1 °F 54% 30.06 in 10.0 mi WSW 4.6 mph - N/A   Partly Cloudy
5:53 PM 80.1 °F 81.5 °F 63.0 °F 56% 30.05 in 10.0 mi Variable 6.9 mph - N/A   Mostly Cloudy
6:53 PM 79.0 °F - 63.0 °F 58% 30.05 in 10.0 mi Variable 5.8 mph - N/A   Partly Cloudy
7:53 PM 75.9 °F - 63.0 °F 64% 30.05 in 10.0 mi West 3.5 mph - N/A   Clear
8:53 PM 72.0 °F - 64.0 °F 76% 30.06 in 10.0 mi WSW 3.5 mph - N/A   Clear
9:53 PM 70.0 °F - 64.0 °F 81% 30.07 in 10.0 mi NW 3.5 mph - N/A   Clear
10:53 PM 66.9 °F - 64.0 °F 90% 30.07 in 10.0 mi Calm Calm - N/A   Clear
11:53 PM 66.0 °F - 63.0 °F 90% 30.07 in 10.0 mi Calm Calm - N/A   Clear